Aérodrome :
LOGIN :

S'inscrire | Disclaimer

   EN    FR    IT 

 










Légende :    VFR   VFR Marginal   IFR   IFR Intensif   IFR Très Intensif
Visi : 
Plafond : 
>= 8 km
>= 3000ft
5 à 8 km
1000 à 3000 ft
1500m à 5 km
500 à 1000 ft
800 à 1500m
200 à 500 ft
< 800m
< 200 ft
Symboles :   Orages  Brouillard  Fortes neiges  Fortes précipitations  Vent > 20 kt
SIGMETs :   Divers  Orages  Givrage  Turbulence  Onde Orograph.  Cendres Volcan.






- Altitude de l'aérodrome : 19 ft
- Code IATA : DJE


DTTJ - Djerba Zarzis

DERNIER METAR :
  • 200200Z 18005KT CAVOK 17/13 Q1022 NOSIG

METARs EXPIRÉS :
  • 200130Z 18005KT CAVOK 17/13 Q1022 NOSIG
  • 200000Z 19004KT CAVOK 18/14 Q1023 NOSIG
  • 192330Z 17004KT CAVOK 18/14 Q1023 NOSIG

TAF TAF DTTJ
Valide du 20 à 00h jusqu'au 21 à 00h UTC


192300Z 2000/2024 17004KT CAVOK
BECMG 2013/2015 09012KT 9999 SCT020



MET'MAP, la Météo Aéronautique d'un coup d'oeil ! - Copyright ORBIFLY Décembre 2007 - Disclaimer

ORBIFLY MET'MAP TEAM :

Programmation & Développement : Alexandra Zaïnal
Sur une idée originale de : Baudouin d'Aumeries
Assistance à la programmation : Marc-Olivier Méhu
Soutien technique & logistique : Manuel Goepfert

Contact : metmap@orbifly.com




SOURCES & CREDITS :

   NOAA